Clarksburg, WV

8:28 PM EDT on June 26, 2017 (GMT -0400)
Benedum

Weather History for KCKB - October, 2012

Change the Weather History Date:

Wednesday, October 10, 2012

  Actual Average Record
Temperature  
Mean Temperature 49 °F -  
Max Temperature 57 °F 67 °F 87 °F (1939)
Min Temperature 41 °F 43 °F 26 °F (1964)
Degree Days  
Heating Degree Days 16    
Moisture  
Dew Point 41 °F    
Average Humidity 73    
Maximum Humidity 97    
Minimum Humidity 53    
Precipitation  
Precipitation 0.01 in - - ()
Sea Level Pressure  
Sea Level Pressure 30.02 in    
Wind  
Wind Speed 6 mph (WSW)    
Max Wind Speed 16 mph    
Max Gust Speed 21 mph    
Visibility 10 miles    
Events      
Averages and records for this station are not official NWS values.
T = Trace of Precipitation, MM = Missing Value Source: NWS Daily Summary

Daily Weather History Graph

Daily Weather History Graph

Search for Another Location

Airport or City:

Trip Planner

Search our weather history database for the weather conditions in past years. The results will help you decide how hot, cold, wet, or windy it might be!

Date:

Astronomy

Oct. 10, 2012 Rise Set
Actual Time 7:26 AM EDT 6:48 PM EDT
Civil Twilight 6:59 AM EDT 7:15 PM EDT
Nautical Twilight 6:28 AM EDT 7:46 PM EDT
Astronomical Twilight 5:57 AM EDT 8:17 PM EDT
Moon 2:02 AM EDT (10/10) 3:49 PM EDT (10/10)
Length of Visible Light 12h 16m
Length of Day
11h 22m
Waning Crescent, 27% of the Moon is Illuminated
Oct 10
Waning Crescent
Oct 15
New
Oct 21
First Quarter
Oct 29
Full
Nov 6
Last Quarter

Hourly Weather History & Observations

Time (EDT) Temp. Windchill Dew Point Humidity Pressure Visibility Wind Dir Wind Speed Gust Speed Precip Events Conditions
12:53 AM 41.0 °F - 39.0 °F 93% 30.02 in 7.0 mi Calm Calm - N/A   Clear
1:53 AM 42.1 °F - 39.9 °F 92% 30.01 in 10.0 mi Calm Calm - N/A   Overcast
2:53 AM 43.0 °F - 42.1 °F 97% 30.00 in 10.0 mi Calm Calm - N/A   Overcast
3:53 AM 45.0 °F - 42.1 °F 90% 29.99 in 10.0 mi Calm Calm - N/A   Overcast
4:53 AM 45.0 °F - 43.0 °F 93% 30.00 in 10.0 mi Calm Calm - N/A   Overcast
5:53 AM 46.9 °F - 43.0 °F 86% 30.00 in 10.0 mi SSW 5.8 mph - N/A   Overcast
6:53 AM 46.9 °F - 43.0 °F 86% 30.00 in 10.0 mi South 5.8 mph - 0.01 in   Scattered Clouds
7:53 AM 46.9 °F - 43.0 °F 86% 30.00 in 10.0 mi South 4.6 mph - N/A   Scattered Clouds
8:53 AM 50.0 °F - 45.0 °F 83% 30.00 in 10.0 mi SW 10.4 mph - N/A   Overcast
9:53 AM 53.1 °F - 46.9 °F 80% 30.00 in 10.0 mi SW 9.2 mph - N/A   Overcast
10:53 AM 54.0 °F - 46.0 °F 75% 29.99 in 10.0 mi SW 11.5 mph - N/A   Overcast
11:53 AM 57.9 °F - 46.9 °F 67% 29.98 in 10.0 mi SW 12.7 mph 19.6 mph N/A   Overcast
12:11 PM 57.2 °F - 46.4 °F 67% 29.99 in 10.0 mi SW 16.1 mph 20.7 mph N/A   Overcast
12:53 PM 57.0 °F - 45.0 °F 64% 29.97 in 10.0 mi WSW 15.0 mph - N/A   Overcast
1:27 PM 55.4 °F - 44.6 °F 67% 29.97 in 10.0 mi WSW 12.7 mph 19.6 mph N/A   Overcast
1:53 PM 55.9 °F - 45.0 °F 67% 29.96 in 10.0 mi West 11.5 mph 19.6 mph N/A   Overcast
2:53 PM 54.0 °F - 45.0 °F 72% 29.97 in 10.0 mi West 13.8 mph 20.7 mph N/A   Overcast
3:53 PM 52.0 °F - 45.0 °F 77% 29.99 in 9.0 mi West 12.7 mph 19.6 mph N/A   Overcast
4:16 PM 53.6 °F - 44.6 °F 72% 30.00 in 10.0 mi West 11.5 mph 16.1 mph N/A   Overcast
4:53 PM 55.0 °F - 43.0 °F 64% 30.00 in 10.0 mi West 10.4 mph 19.6 mph N/A   Partly Cloudy
5:53 PM 55.0 °F - 39.9 °F 57% 30.01 in 10.0 mi West 9.2 mph - N/A   Clear
6:53 PM 52.0 °F - 35.1 °F 53% 30.05 in 10.0 mi West 9.2 mph - N/A   Clear
7:53 PM 50.0 °F - 34.0 °F 54% 30.07 in 10.0 mi West 6.9 mph - N/A   Clear
8:53 PM 48.0 °F - 33.1 °F 56% 30.10 in 10.0 mi West 5.8 mph - N/A   Clear
9:53 PM 48.0 °F - 32.0 °F 54% 30.13 in 10.0 mi West 5.8 mph - N/A   Partly Cloudy
10:53 PM 46.9 °F - 30.9 °F 54% 30.17 in 10.0 mi WNW 12.7 mph - N/A   Mostly Cloudy
11:53 PM 45.0 °F 40.1 °F 30.0 °F 56% 30.19 in 10.0 mi NW 9.2 mph 17.3 mph N/A   Clear